This is the latest recevied weather packets stored in our database for station/object DD3UTS-13. If no packets are shown the sender has not sent any weather packets the latest 10 day(s).
| Time | Temp. | Humidity | Pressure | Rain* | Wind** | Luminosity | Snow |
|---|---|---|---|---|---|---|---|
| 1778094032 | 14.44° C | 75% | 1004.9 hPa | 0 mm | - | 0 W/m² | - |
| 1778093732 | 14.44° C | 74% | 1004.8 hPa | 0 mm | - | 0 W/m² | - |
| 1778093432 | 14.44° C | 74% | 1004.8 hPa | 0 mm | - | 0 W/m² | - |
| 1778093132 | 15° C | 73% | 1004.8 hPa | 0 mm | - | 0 W/m² | - |
| 1778092832 | 15° C | 72% | 1004.8 hPa | 0 mm | - | 0 W/m² | - |
| 1778092532 | 15° C | 71% | 1004.8 hPa | 0 mm | - | 0 W/m² | - |
| 1778092232 | 15° C | 71% | 1004.8 hPa | 0 mm | - | 0 W/m² | - |
| 1778091932 | 15.56° C | 70% | 1004.7 hPa | 0 mm | - | 2 W/m² | - |
| 1778091632 | 16.11° C | 69% | 1004.7 hPa | 0 mm | - | 5 W/m² | - |
| 1778091332 | 16.11° C | 68% | 1004.7 hPa | 0 mm | - | 7 W/m² | - |
| 1778091032 | 16.67° C | 67% | 1004.6 hPa | 0 mm | - | 12 W/m² | - |
| 1778090732 | 16.67° C | 66% | 1004.5 hPa | 0 mm | - | 14 W/m² | - |
| 1778090432 | 17.22° C | 64% | 1004.5 hPa | 0 mm | - | 21 W/m² | - |
| 1778090131 | 17.22° C | 63% | 1004.5 hPa | 0 mm | - | 30 W/m² | - |
| 1778089834 | 18.33° C | 61% | 1004.6 hPa | 0 mm | - | 64 W/m² | - |
| 1778089532 | 18.33° C | 60% | 1004.6 hPa | 0 mm | - | 51 W/m² | - |
| 1778089232 | 18.33° C | 59% | 1004.6 hPa | 0 mm | - | 138 W/m² | - |
| 1778088932 | 18.89° C | 59% | 1004.5 hPa | 0 mm | - | 148 W/m² | - |
| 1778088631 | 18.89° C | 58% | 1004.5 hPa | 0 mm | - | 196 W/m² | - |
| 1778088333 | 18.89° C | 58% | 1004.5 hPa | 0 mm | - | 199 W/m² | - |
| 1778088032 | 18.89° C | 58% | 1004.4 hPa | 0 mm | - | 219 W/m² | - |
| 1778087731 | 18.89° C | 57% | 1004.4 hPa | 0 mm | - | 141 W/m² | - |
| 1778087432 | 18.89° C | 57% | 1004.4 hPa | 0 mm | - | 129 W/m² | - |
| 1778087131 | 18.89° C | 57% | 1004.2 hPa | 0 mm | - | 108 W/m² | - |
| 1778086832 | 19.44° C | 56% | 1004.2 hPa | 0 mm | - | 101 W/m² | - |
* Rain latest 24 hours (hover to see other rain measurements)
** Current wind speed in m/s (hover to see current wind gust speed)